Winona, MN

9:55 AM CDT on August 21, 2019 (GMT -0500)
Winona Municipal-Conrad

Weather History for KONA - July, 2019

Change the Weather History Date:

Thursday, July 18, 2019

  Actual Average Record
Temperature  
Mean Temperature 79 °F -  
Max Temperature 89 °F 83 °F 95 °F (1996)
Min Temperature 69 °F 62 °F 53 °F (2000)
Cooling Degree Days 14    
Growing Degree Days 29 (Base 50)    
Moisture  
Dew Point 71 °F    
Average Humidity 79    
Maximum Humidity 94    
Minimum Humidity 66    
Precipitation  
Precipitation 1.72 in - - ()
Sea Level Pressure  
Sea Level Pressure 29.73 in    
Wind  
Wind Speed 3 mph (South)    
Max Wind Speed 9 mph    
Max Gust Speed -    
Visibility 9 miles    
Events Rain , Thunderstorm    
Averages and records for this station are not official NWS values.
T = Trace of Precipitation, MM = Missing Value Source: NWS Daily Summary

Daily Weather History Graph

Daily Weather History Graph

Search for Another Location

Airport or City:

Astronomy

Jul. 18, 2019 Rise Set
Actual Time 5:40 AM CDT 8:45 PM CDT
Civil Twilight 5:05 AM CDT 9:20 PM CDT
Nautical Twilight 4:20 AM CDT 10:04 PM CDT
Astronomical Twilight 3:27 AM CDT 10:57 PM CDT
Moon 10:08 PM CDT (7/18) 7:11 AM CDT (7/18)
Length of Visible Light 16h 14m
Length of Day
15h 05m
Full, 97% of the Moon is Illuminated
Jul 18
Full
Jul 24
Last Quarter
Jul 31
New
Aug 7
First Quarter
Aug 15
Full

Hourly Weather History & Observations

Time (CDT) Temp. Heat Index Dew Point Humidity Pressure Visibility Wind Dir Wind Speed Gust Speed Precip Events Conditions
12:55 AM 75.2 °F - 66.2 °F 73% 29.79 in 10.0 mi SE 5.8 mph - N/A   Overcast
1:55 AM 75.2 °F - 66.2 °F 73% 29.78 in 10.0 mi Calm Calm - N/A   Mostly Cloudy
2:55 AM 75.2 °F - 68.0 °F 78% 29.79 in 7.0 mi Calm Calm - N/A Rain , Thunderstorm Rain
3:55 AM 71.6 °F - 69.8 °F 94% 29.77 in 5.0 mi Calm Calm - 0.07 in Rain , Thunderstorm Light Thunderstorms and Rain
4:55 AM 71.6 °F - 69.8 °F 94% 29.75 in 10.0 mi Calm Calm - 0.05 in Rain Light Rain
5:55 AM 69.8 °F - 68.0 °F 94% 29.75 in 4.0 mi Calm Calm - 0.30 in Rain , Thunderstorm Thunderstorms and Rain
6:55 AM 71.6 °F - 66.2 °F 83% 29.71 in 10.0 mi Calm Calm - 0.01 in   Scattered Clouds
7:55 AM 75.2 °F - 69.8 °F 83% 29.74 in 10.0 mi SE 4.6 mph - N/A   Overcast
8:55 AM 75.2 °F - 69.8 °F 83% 29.75 in 10.0 mi SSE 4.6 mph - N/A   Overcast
9:55 AM 75.2 °F - 68.0 °F 78% 29.74 in 10.0 mi SSE 5.8 mph - N/A   Mostly Cloudy
10:55 AM 75.2 °F - 68.0 °F 78% 29.76 in 10.0 mi East 4.6 mph - N/A   Overcast
11:55 AM 75.2 °F - 68.0 °F 78% 29.74 in 10.0 mi SSE 3.5 mph - N/A   Overcast
12:55 PM 78.8 °F - 69.8 °F 74% 29.72 in 10.0 mi SW 3.5 mph - N/A   Mostly Cloudy
1:55 PM 78.8 °F - 69.8 °F 74% 29.72 in 10.0 mi SSW 4.6 mph - N/A   Overcast
2:55 PM 82.4 °F 87.2 °F 71.6 °F 70% 29.71 in 10.0 mi SSW 9.2 mph - N/A   Overcast
3:55 PM 84.2 °F 90.9 °F 73.4 °F 70% 29.71 in 10.0 mi South 3.5 mph - N/A   Overcast
4:55 PM 89.6 °F 102.2 °F 77.0 °F 66% 29.69 in 10.0 mi SW 6.9 mph - N/A   Scattered Clouds
5:55 PM 89.6 °F 102.2 °F 77.0 °F 66% 29.68 in 10.0 mi SW 3.5 mph - N/A   Clear
6:55 PM 89.6 °F 102.2 °F 77.0 °F 66% 29.66 in 10.0 mi Calm Calm - N/A   Clear
7:55 PM 84.2 °F 92.3 °F 75.2 °F 74% 29.67 in 10.0 mi SE 5.8 mph - N/A   Mostly Cloudy
8:55 PM 78.8 °F - 75.2 °F 89% 29.68 in 7.0 mi Calm Calm - 0.23 in Rain , Thunderstorm Light Thunderstorms and Rain
10:55 PM 77.0 °F - 75.2 °F 94% 29.71 in 5.0 mi SSW 8.1 mph - 0.85 in Rain , Thunderstorm Light Thunderstorms and Rain
11:55 PM 75.2 °F - 71.6 °F 89% 29.70 in 10.0 mi SE 6.9 mph - 0.21 in Rain , Thunderstorm Light Thunderstorms and Rain